[[{"header":{"parameterUnit":"m.s-1","parameterCategory":1,"la1":30.2991,"la2":30.254,"lo1":-89.0895,"lo2":-89.0444,"dy":0.0017,"dx":0.0017,"nx":28,"ny":28,"refTime":"2025-11-25T09:00:00:Z","depth":0,"parameterNumber":2,"parameterNumberName":"U-component_of_WINDS"},"data":[0,0,0,0,0,0,0,0,0,0,0,0,0,0,0,0,0,0,0,0,0,0,0,0,0,0,0,0,0,0,0,0,0,0,0,0,0,0,0,0,0,0,0,0,0,0,0,0,0,0,0,0,0,0,0,0,0,0,-0.4908,-0.4909,0,-0.4972,-0.4973,-0.4974,-0.495,-0.4949,-0.4947,-0.4946,-0.5014,-0.5017,-0.5021,0,0,0,0,0,0,0,0,0,0,0,0,0,-0.4768,-0.477,-0.4908,-0.4909,-0.491,-0.4972,-0.4973,-0.4974,-0.495,-0.4949,-0.4947,-0.4945,-0.5013,-0.5017,-0.5021,0,0,0,0,0,0,0,0,0,0,0,0,0,-0.483,-0.4771,-0.4908,-0.4905,-0.4906,-0.4972,-0.4973,-0.4974,-0.4951,-0.4948,-0.4946,-0.4944,-0.5012,-0.5017,-0.5021,-0.5094,0,0,-0.5036,-0.5038,0,0,0,0,0,0,0,0,-0.4827,-0.4835,-0.4905,-0.4906,-0.4906,-0.4951,-0.4948,-0.5014,-0.4951,-0.4934,-0.4946,-0.4943,-0.4995,-0.5001,-0.5018,-0.5098,-0.5101,-0.5036,-0.5039,-0.5041,-0.5043,0,0,0,0,0,0,0,-0.4822,-0.4832,-0.4934,-0.4906,-0.4907,-0.4902,-0.4908,-0.4961,-0.4976,-0.4935,-0.4934,-0.4941,-0.4995,-0.5013,-0.5019,-0.5102,-0.5036,-0.504,-0.5043,-0.5045,-0.5244,-0.5247,0,0,0,0,0,0,-0.4817,-0.4829,-0.4931,-0.4935,-0.486,-0.4906,-0.4913,-0.4939,-0.4975,-0.4979,-0.4943,-0.494,-0.5006,-0.5014,-0.5022,-0.5111,-0.5041,-0.5046,-0.5048,-0.5242,-0.5245,-0.5248,0,0,0,0,0,0,-0.4814,-0.4827,-0.4929,-0.4882,-0.4894,-0.4911,-0.494,-0.4941,-0.496,-0.4981,-0.4984,-0.4959,-0.5005,-0.5015,-0.5076,-0.5113,-0.5048,-0.5052,-0.5239,-0.5243,-0.5246,-0.5288,0,0,0,0,0,0,-0.481,-0.4826,-0.4854,-0.4883,-0.4897,-0.4982,-0.4942,-0.4944,-0.4968,-0.4964,-0.4997,-0.5,-0.5004,-0.5069,-0.5081,-0.5118,-0.5056,-0.5236,-0.5241,-0.5245,-0.5284,-0.5293,-0.5301,0,0,0,0,0,-0.4806,-0.4863,-0.4855,-0.4868,-0.4932,-0.4984,-0.4993,-0.4995,-0.497,-0.4999,-0.5013,-0.4999,-0.5106,-0.5076,-0.5089,-0.5128,-0.5234,-0.5239,-0.5245,-0.528,-0.5291,-0.53,0,0,0,0,0,0,-0.484,-0.4867,-0.4858,-0.4927,-0.4953,-0.498,-0.5016,-0.5006,-0.5041,-0.5037,-0.5038,-0.5046,-0.5109,-0.5124,-0.509,-0.52,-0.5166,-0.5175,-0.5189,-0.5199,-0.5208,-0.5204,-0.506,0,0,0,0,0,-0.4855,-0.4894,-0.4916,-0.4975,-0.4989,-0.5,-0.5023,-0.5022,-0.505,-0.5061,-0.5079,-0.5108,-0.5147,-0.5174,-0.5212,-0.5285,-0.5292,-0.5318,-0.5326,-0.5333,-0.5341,-0.5381,-0.5393,-0.5266,-0.5265,-0.5265,0,0,-0.4888,-0.4907,-0.4933,-0.4983,-0.5003,-0.5045,-0.501,-0.5055,-0.5087,-0.5068,-0.5128,-0.5142,-0.5173,-0.5241,-0.5271,-0.5255,-0.5377,-0.534,-0.5345,-0.535,-0.5388,-0.54,-0.5411,-0.5269,-0.5269,-0.5268,0,0,-0.4969,-0.4987,-0.5038,-0.5059,-0.5089,-0.5096,-0.5108,-0.5136,-0.5145,-0.5203,-0.5191,-0.5227,-0.5296,-0.5319,-0.534,-0.5427,-0.5417,-0.5439,-0.5485,-0.5524,-0.5534,-0.5543,-0.5576,-0.5587,-0.5447,-0.5447,-0.5447,0,-0.5006,-0.5068,-0.5066,-0.5113,-0.5135,-0.5118,-0.5171,-0.5191,-0.5233,-0.5249,-0.5229,-0.5315,-0.5334,-0.5408,-0.5429,-0.5445,-0.546,-0.5437,-0.5532,-0.5541,-0.555,-0.5581,-0.5593,-0.5449,-0.5449,-0.5449,-0.5449,0,-0.5113,-0.5155,-0.5193,-0.5233,-0.5259,-0.5308,-0.5315,-0.5342,-0.5337,-0.5346,-0.5407,-0.5429,-0.5472,-0.5488,-0.5485,-0.5561,-0.555,-0.5531,-0.5498,-0.5565,-0.5594,-0.5606,-0.5453,-0.5452,-0.5452,-0.5451,0,0,-0.522,-0.5256,-0.527,-0.5288,-0.5319,-0.5353,-0.5401,-0.5441,-0.5465,-0.5493,-0.5535,-0.5592,-0.5574,-0.5598,-0.5597,-0.5631,-0.57,-0.5608,-0.5609,-0.5626,-0.5786,-0.5801,-0.5815,-0.5692,-0.5694,-0.5696,-0.5784,0,-0.5305,-0.5389,-0.5388,-0.5466,-0.5506,-0.549,-0.5532,-0.5556,-0.5565,-0.5601,-0.5611,-0.5652,-0.5625,-0.5639,-0.5672,-0.5685,-0.5733,-0.5678,-0.5732,-0.5734,-0.5727,-0.583,-0.5847,-0.5929,-0.5795,-0.5797,-0.5798,0,-0.5417,-0.5448,-0.553,-0.5554,-0.5571,-0.5609,-0.5645,-0.5679,-0.5706,-0.571,-0.5735,-0.5728,-0.5778,-0.574,-0.5809,-0.5772,-0.5793,-0.5803,-0.5806,-0.5813,-0.5772,-0.5842,-0.5955,-0.5968,-0.5816,-0.5815,-0.5814,0,-0.5489,-0.5551,-0.5608,-0.5623,-0.5654,-0.5681,-0.5695,-0.5719,-0.5743,-0.5774,-0.579,-0.5827,-0.5848,-0.5877,-0.5881,-0.5853,-0.595,-0.5913,-0.5956,-0.5956,-0.598,-0.5979,-0.61,-0.599,-0.599,-0.5989,-0.5989,0,-0.5585,-0.5637,-0.5641,-0.5677,-0.5733,-0.5731,-0.5788,-0.5799,-0.5821,-0.5858,-0.5846,-0.5882,-0.5883,-0.592,-0.5923,-0.598,-0.5989,-0.5994,-0.5995,-0.5997,-0.5997,-0.6013,-0.6009,-0.5993,-0.5992,-0.5991,-0.5991,0,-0.5677,-0.5682,-0.5743,-0.5766,-0.5773,-0.5814,-0.5834,-0.5868,-0.5874,-0.5922,-0.5933,-0.5944,-0.5987,-0.5992,-0.6042,-0.6044,-0.6113,-0.6107,-0.6104,-0.6104,-0.6148,-0.6145,-0.6286,-0.6305,-0.618,-0.6182,-0.6182,0,-0.574,-0.5779,-0.5805,-0.5829,-0.5844,-0.5883,-0.5907,-0.5905,-0.5931,-0.5963,-0.5994,-0.6034,-0.6067,-0.6136,-0.6149,-0.6187,-0.6183,-0.6229,-0.6189,-0.6189,-0.6186,-0.6184,-0.6189,-0.6238,-0.624,-0.6241,-0.6242,0,-0.5851,-0.5851,-0.5886,-0.5921,-0.5949,-0.5977,-0.6003,-0.6024,-0.6026,-0.6055,-0.6098,-0.6123,-0.6173,-0.6214,-0.6251,-0.6266,-0.6255,-0.6254,-0.6266,-0.627,-0.6268,-0.6271,-0.6128,-0.6252,-0.6251,-0.625,-0.6249,-0.6249,-0.5932,-0.5966,-0.5989,-0.6028,-0.6047,-0.6071,-0.6104,-0.6114,-0.615,-0.619,-0.6187,-0.6234,-0.6259,-0.6307,-0.6325,-0.6362,-0.6347,-0.6364,-0.6369,-0.6374,-0.6379,-0.6259,-0.6368,-0.6368,-0.6368,-0.6368,-0.6367,0,-0.6044,-0.6058,-0.6093,-0.613,-0.616,-0.6144,-0.6172,-0.6199,-0.6241,-0.6264,-0.6296,-0.6345,-0.6384,-0.6399,-0.6438,-0.6465,-0.6461,-0.6475,-0.6475,-0.6479,-0.639,-0.6376,-0.6478,-0.6478,-0.6478,-0.6478,-0.6478,-0.6478,-0.6107,-0.6163,-0.6166,-0.6231,-0.6245,-0.629,-0.6308,-0.633,-0.6349,-0.6404,-0.6436,-0.6445,-0.6465,-0.6505,-0.654,-0.6544,-0.6559,-0.6577,-0.6578,-0.6496,-0.6485,-0.6474,-0.6462,-0.658,-0.658,-0.6664,-0.6665,-0.6665]},{"header":{"parameterUnit":"m.s-1","parameterCategory":1,"la1":30.2991,"la2":30.254,"lo1":-89.0895,"lo2":-89.0444,"dy":0.0017,"dx":0.0017,"nx":28,"ny":28,"refTime":"2025-11-25T09:00:00:Z","depth":0,"parameterNumber":3,"parameterNumberName":"V-component_of_WINDS"},"data":[0,0,0,0,0,0,0,0,0,0,0,0,0,0,0,0,0,0,0,0,0,0,0,0,0,0,0,0,0,0,0,0,0,0,0,0,0,0,0,0,0,0,0,0,0,0,0,0,0,0,0,0,0,0,0,0,0,0,-7.211,-7.2112,0,-7.225,-7.2252,-7.2254,-7.2157,-7.2153,-7.2149,-7.2145,-7.2281,-7.2289,-7.2297,0,0,0,0,0,0,0,0,0,0,0,0,0,-7.1753,-7.176,-7.211,-7.2112,-7.2114,-7.225,-7.2252,-7.2254,-7.2158,-7.2153,-7.2148,-7.2143,-7.2279,-7.2288,-7.2297,0,0,0,0,0,0,0,0,0,0,0,0,0,-7.1902,-7.1762,-7.211,-7.2083,-7.2081,-7.225,-7.2252,-7.2255,-7.2159,-7.2153,-7.2146,-7.214,-7.2276,-7.2287,-7.2298,-7.25,0,0,-7.2334,-7.2339,0,0,0,0,0,0,0,0,-7.1894,-7.1915,-7.2085,-7.2085,-7.2084,-7.218,-7.2176,-7.2336,-7.2161,-7.213,-7.2144,-7.2137,-7.2252,-7.2266,-7.2306,-7.2506,-7.2512,-7.2335,-7.2342,-7.2347,-7.235,0,0,0,0,0,0,0,-7.1884,-7.1909,-7.2165,-7.2087,-7.2087,-7.2061,-7.2075,-7.2206,-7.2225,-7.2132,-7.2125,-7.2143,-7.2251,-7.2295,-7.2308,-7.2514,-7.2334,-7.2345,-7.2352,-7.2356,-7.2885,-7.2892,0,0,0,0,0,0,-7.1877,-7.1901,-7.2161,-7.217,-7.1971,-7.2073,-7.2088,-7.2156,-7.2224,-7.2228,-7.2149,-7.2138,-7.2278,-7.2295,-7.2313,-7.2553,-7.2347,-7.2357,-7.2364,-7.2878,-7.2887,-7.2894,0,0,0,0,0,0,-7.1869,-7.1901,-7.2155,-7.2034,-7.2064,-7.2086,-7.2162,-7.2162,-7.2206,-7.2237,-7.2239,-7.2191,-7.2274,-7.2297,-7.2454,-7.2556,-7.2363,-7.2373,-7.287,-7.2881,-7.2891,-7.3035,0,0,0,0,0,0,-7.1859,-7.1899,-7.1977,-7.2036,-7.2071,-7.2297,-7.2168,-7.2169,-7.2227,-7.2214,-7.2277,-7.2281,-7.2271,-7.2438,-7.2466,-7.2568,-7.2382,-7.2861,-7.2875,-7.2887,-7.3021,-7.3049,-7.3073,0,0,0,0,0,-7.1847,-7.201,-7.1981,-7.2013,-7.217,-7.2303,-7.2323,-7.231,-7.2235,-7.2313,-7.2333,-7.2279,-7.254,-7.2455,-7.2485,-7.2593,-7.2854,-7.2871,-7.2886,-7.3009,-7.3043,-7.3072,0,0,0,0,0,0,-7.196,-7.2018,-7.1986,-7.2174,-7.2235,-7.2287,-7.2384,-7.2346,-7.2428,-7.2413,-7.239,-7.2405,-7.2571,-7.2597,-7.2501,-7.2791,-7.2685,-7.2708,-7.2768,-7.2801,-7.2826,-7.2816,-7.2392,0,0,0,0,0,-7.2008,-7.2114,-7.2157,-7.2318,-7.2351,-7.2363,-7.242,-7.2405,-7.2466,-7.2491,-7.2522,-7.2581,-7.2677,-7.274,-7.2829,-7.3024,-7.3035,-7.3113,-7.3139,-7.316,-7.318,-7.3285,-7.332,-7.2947,-7.2947,-7.2947,0,0,-7.2106,-7.215,-7.2218,-7.2342,-7.2387,-7.2496,-7.2385,-7.2504,-7.2583,-7.2508,-7.266,-7.2685,-7.2749,-7.2926,-7.3006,-7.2953,-7.3286,-7.3181,-7.3197,-7.3206,-7.3305,-7.334,-7.3371,-7.2958,-7.2956,-7.2954,0,0,-7.234,-7.2384,-7.2524,-7.2572,-7.2643,-7.265,-7.2683,-7.2742,-7.2756,-7.2908,-7.2854,-7.2947,-7.3112,-7.316,-7.3206,-7.3459,-7.3412,-7.3488,-7.3625,-7.3727,-7.3756,-7.3782,-7.3872,-7.3905,-7.3508,-7.3509,-7.3509,0,-7.2452,-7.2615,-7.26,-7.2724,-7.278,-7.2719,-7.2859,-7.2905,-7.3001,-7.304,-7.298,-7.3187,-7.3226,-7.3413,-7.3475,-7.3515,-7.3551,-7.3482,-7.3753,-7.3779,-7.3803,-7.3889,-7.3923,-7.3518,-7.3517,-7.3516,-7.3515,0,-7.275,-7.2864,-7.2967,-7.3064,-7.3131,-7.3263,-7.3265,-7.3335,-7.3314,-7.3327,-7.3482,-7.3526,-7.3624,-7.3667,-7.3647,-7.3852,-7.3818,-7.3757,-7.365,-7.3848,-7.3928,-7.396,-7.353,-7.3527,-7.3525,-7.3522,0,0,-7.3059,-7.3147,-7.3185,-7.3228,-7.3302,-7.3388,-7.3516,-7.3614,-7.3674,-7.3741,-7.3847,-7.3988,-7.3932,-7.3985,-7.3969,-7.4059,-7.4256,-7.3986,-7.3987,-7.4035,-7.4484,-7.453,-7.4569,-7.4225,-7.4231,-7.4236,-7.4479,0,-7.3298,-7.3524,-7.3514,-7.3724,-7.3828,-7.3771,-7.3882,-7.3938,-7.3954,-7.4042,-7.4057,-7.4159,-7.4077,-7.4108,-7.4195,-7.4214,-7.4346,-7.4196,-7.4322,-7.4326,-7.4308,-7.461,-7.4659,-7.4886,-7.451,-7.4515,-7.4519,0,-7.3606,-7.3687,-7.3909,-7.3967,-7.401,-7.4111,-7.4199,-7.4286,-7.4347,-7.4352,-7.4411,-7.4381,-7.4508,-7.4398,-7.4572,-7.4471,-7.4521,-7.4538,-7.4546,-7.4558,-7.4435,-7.463,-7.4958,-7.4993,-7.4568,-7.4564,-7.4561,0,-7.381,-7.3974,-7.4128,-7.4166,-7.4238,-7.431,-7.4343,-7.4398,-7.4458,-7.4534,-7.4572,-7.4662,-7.4711,-7.478,-7.4774,-7.4694,-7.4951,-7.484,-7.4957,-7.4957,-7.5013,-7.501,-7.5355,-7.5046,-7.5045,-7.5045,-7.5044,0,-7.4078,-7.4215,-7.4221,-7.4316,-7.4468,-7.4454,-7.4604,-7.4628,-7.4678,-7.4775,-7.473,-7.4821,-7.4808,-7.4899,-7.4894,-7.5039,-7.5061,-7.5067,-7.5064,-7.5072,-7.5071,-7.5105,-7.5089,-7.5054,-7.5052,-7.505,-7.5048,0,-7.4332,-7.4341,-7.4505,-7.456,-7.4577,-7.4687,-7.4732,-7.4821,-7.4832,-7.4955,-7.4983,-7.5,-7.5105,-7.5106,-7.5225,-7.5222,-7.5399,-7.5378,-7.538,-7.5376,-7.5492,-7.5482,-7.5871,-7.5922,-7.558,-7.5583,-7.5586,0,-7.4502,-7.4607,-7.4674,-7.4737,-7.4775,-7.4877,-7.4938,-7.4927,-7.4992,-7.507,-7.5149,-7.5251,-7.5331,-7.5501,-7.5522,-7.5613,-7.5594,-7.5724,-7.5607,-7.5611,-7.5596,-7.559,-7.56,-7.5747,-7.5751,-7.5754,-7.5757,0,-7.4804,-7.4803,-7.4894,-7.4988,-7.5062,-7.5134,-7.5201,-7.5254,-7.5251,-7.5326,-7.5434,-7.5497,-7.5619,-7.572,-7.5808,-7.5838,-7.5797,-7.5793,-7.5825,-7.5834,-7.5831,-7.5834,-7.5443,-7.5785,-7.5782,-7.578,-7.5778,-7.5777,-7.5021,-7.5112,-7.5174,-7.5276,-7.5326,-7.5389,-7.5476,-7.5499,-7.5589,-7.569,-7.5677,-7.5798,-7.5855,-7.5969,-7.6008,-7.61,-7.6055,-7.6101,-7.6112,-7.6124,-7.6137,-7.5816,-7.6116,-7.6115,-7.6114,-7.6114,-7.6113,0,-7.532,-7.5358,-7.5452,-7.5548,-7.5629,-7.5585,-7.5656,-7.5726,-7.5833,-7.5892,-7.5973,-7.6096,-7.6194,-7.6223,-7.6317,-7.6385,-7.6369,-7.641,-7.6405,-7.6413,-7.6172,-7.6136,-7.6422,-7.6422,-7.6422,-7.6422,-7.6422,-7.6422,-7.5486,-7.5637,-7.5644,-7.5819,-7.5854,-7.5974,-7.6019,-7.6076,-7.6123,-7.6264,-7.6346,-7.6365,-7.6412,-7.6508,-7.6595,-7.6601,-7.6637,-7.6687,-7.6685,-7.646,-7.6429,-7.64,-7.6365,-7.6695,-7.6695,-7.6918,-7.692,-7.6921]}]]